Location: Grust
(42.8833°N, 0.0333°W)
Time: 13:47:54
(UTC+00:00)

Cosmos 1606 Rocket - Pass Details

Date: 25 October 2020
Orbit: 604 x 631 km, 82.5° (Epoch: 24 November)

Event Time Altitude Azimuth Distance (km) Brightness Sun altitude
Rises 18:08:41 0° 195° (SSW) 2,856 7.2 -12.9°
Reaches altitude 10° 18:10:54 10° 199° (SSW) 1,960 6.4 -13.3°
Maximum altitude 18:15:12 61° 280° (W) 700 4.1 -14.1°
Drops below altitude 10° 18:19:34 10° 1° (N) 1,993 6.1 -14.9°
Sets 18:21:50 0° 5° (N) 2,908 6.9 -15.3°
